This demonstration page uses our WeatherBlox Daily Observations layout. Learn more.

Left ArrowRight Arrow

Hourly Observations for October 29, 2021

Temp ( °F °C ) Dew Point ( °F °C ) Humidity (%) Winds ( mph kmh ) Pressure ( in mb ) Visibility ( mi km ) Precip ( " mm )
12:53 am 00:53 Clear 44 6.7 30 -1.1 58 58 NNW 16 26 30.06 1018 10 16 N/A
1:53 am 01:53 Clear 44 6.7 30 -1.1 58 58 NNW 16 26 30.06 1018 10 16 N/A
2:53 am 02:53 Clear 42 5.6 30 -1.1 62 62 undefined N/A 30.06 1018 10 16 N/A
3:53 am 03:53 Clear 40 4.4 30 -1.1 68 68 NNW 12 19 30.07 1018 10 16 N/A
4:53 am 04:53 Clear 39 3.9 30 -1.1 70 70 NNW 10 17 30.08 1019 10 16 N/A
5:53 am 05:53 Clear 37 2.8 29 -1.7 73 73 NW 10 17 30.09 1019 10 16 N/A
6:53 am 06:53 Clear 38 3.3 29 -1.7 70 70 NNW 15 24 30.10 1019 10 16 N/A
7:53 am 07:53 Clear 36 2.2 29 -1.7 76 76 NW 12 19 30.12 1020 10 16 N/A
8:53 am 08:53 Sunny 40 4.4 30 -1.1 68 68 NNW 12 19 30.13 1020 10 16 N/A
9:53 am 09:53 Sunny 46 7.8 31 -0.6 56 56 NNW 14 22 30.13 1020 10 16 N/A
10:53 am 10:53 Sunny 51 10.6 32 undefined 48 48 N 14 22 30.13 1020 N/A N/A
11:53 am 11:53 Sunny 55 12.8 31 -0.6 40 40 N 15 24 30.12 1020 N/A N/A
12:53 pm 12:53 Sunny 57 13.9 30 -1.1 36 36 NNE 13 20 30.11 1020 10 16 N/A
1:53 pm 13:53 Sunny 60 15.6 29 -1.7 31 31 NNW 12 19 30.07 1018 10 16 N/A
2:53 pm 14:53 Sunny 61 16.1 27 -2.8 27 27 N 10 17 30.04 1017 10 16 N/A
3:53 pm 15:53 Sunny 61 16.1 26 -3.3 26 26 NNW 10 17 30.03 1017 10 16 N/A
4:53 pm 16:53 Sunny 61 16.1 25 -3.9 25 25 N 10 17 30.02 1017 10 16 N/A
5:53 pm 17:53 Sunny 59 15 28 -2.2 31 31 N 3 6 30.01 1016 10 16 N/A
6:53 pm 18:53 Clear 51 10.6 29 -1.7 43 43 N N/A 30.01 1016 10 16 N/A
7:53 pm 19:53 Clear 45 7.2 32 undefined 61 61 N N/A 30.01 1016 10 16 N/A
8:53 pm 20:53 Clear 43 6.1 33 0.6 68 68 N N/A 30.00 1016 10 16 N/A
9:53 pm 21:53 Clear 39 3.9 32 undefined 76 76 N N/A 29.98 1015 10 16 N/A
10:53 pm 22:53 Clear 40 4.4 32 undefined 73 73 N N/A 29.97 1015 10 16 N/A
11:53 pm 23:53 Clear 38 3.3 32 undefined 79 79 N N/A 29.96 1015 10 16 N/A

Powered by AerisWeather